Full Index
Showing up to 100 newest rows before ID 5734641.
| ID | Domain | Status | Last visit | URL |
|---|---|---|---|---|
| 5734638 | marinko-peso.from.hr | 404 | 2026-08-31 17:12:19 | http://marinko-peso.from.hr/ |
| 5734636 | www.crometeo.net | 200 | 2026-08-31 17:12:07 | http://www.crometeo.net/ |
| 5734635 | www.crometeo.net | 200 | 2026-08-31 17:11:56 | https://www.crometeo.net/ |
| 5734634 | termodelta.hr | 200 | 2026-08-31 17:11:56 | http://termodelta.hr/ |
| 5734625 | www.backtothemovies.com | 200 | 2026-08-31 17:11:45 | https://www.backtothemovies.com/ |
| 5734619 | svintl.myschoolapp.com | 200 | 2026-08-31 17:11:28 | https://svintl.myschoolapp.com/ |
| 5734618 | blog.siliconvalleyinternational.org | 200 | 2026-08-31 17:11:27 | http://blog.siliconvalleyinternational.org/ |
| 5734617 | www.siliconvalleyinternational.org | 200 | 2026-08-31 17:11:21 | https://www.siliconvalleyinternational.org/ |
| 5734616 | blog.siliconvalleyinternational.org | 200 | 2026-08-31 17:11:20 | https://blog.siliconvalleyinternational.org/ |
| 5734615 | intl-spirit-store.myspreadshop.com | 200 | 2026-08-31 17:11:18 | https://intl-spirit-store.myspreadshop.com/ |
| 5734612 | www.quotesmeme.com | 200 | 2026-08-31 17:11:12 | https://www.quotesmeme.com/ |
| 5734605 | 9001-iso.ru | 200 | 2026-08-31 17:11:02 | https://9001-iso.ru/ |
| 5734600 | www.umam.com.mx | 200 | 2026-08-31 17:10:58 | https://www.umam.com.mx/ |
| 5734597 | www.nutriplatonestle.es | 200 | 2026-08-31 17:10:51 | https://www.nutriplatonestle.es/ |
| 5734595 | empresa.nestle.es | 403 | 2026-08-31 17:10:50 | https://empresa.nestle.es/ |
| 5734594 | nestlefamilyclub.es | 200 | 2026-08-31 17:10:49 | https://nestlefamilyclub.es/ |
| 5734593 | www.nestlecocina.es | 200 | 2026-08-31 17:10:49 | https://www.nestlecocina.es/ |
| 5734590 | blog.properati.com.ar | 200 | 2026-08-31 17:10:22 | http://blog.properati.com.ar/ |
| 5734588 | www.properati.com.pe | 401 | 2026-08-31 17:10:17 | http://www.properati.com.pe/ |
| 5734587 | www.properati.com.co | 401 | 2026-08-31 17:10:15 | http://www.properati.com.co/ |
| 5734586 | www.properati.com.ar | 401 | 2026-08-31 17:10:14 | http://www.properati.com.ar/ |
| 5734574 | www.printrunner.com | 200 | 2026-08-31 17:08:01 | https://www.printrunner.com/ |
| 5734569 | www.zachys.com | 200 | 2026-08-31 17:07:58 | https://www.zachys.com/ |
| 5734557 | learn.registrarcorp.com | 404 | 2026-08-31 17:06:19 | https://learn.registrarcorp.com/ |
| 5734548 | www.christiandatingexperts.com | 200 | 2026-08-31 17:05:24 | https://www.christiandatingexperts.com/ |
| 5734545 | wild-joker-australia.com | 200 | 2026-08-31 17:05:15 | https://wild-joker-australia.com/ |
| 5734544 | stellar-spins-australia.com | 200 | 2026-08-31 17:05:15 | https://stellar-spins-australia.com/ |
| 5734543 | golden-crown-casino-australia.com | 200 | 2026-08-31 17:05:14 | https://golden-crown-casino-australia.com/ |
| 5734540 | status.alfaview.com | 200 | 2026-08-31 17:05:01 | https://status.alfaview.com/ |
| 5734538 | support.alfaview.com | 200 | 2026-08-31 17:05:00 | https://support.alfaview.com/ |
| 5734537 | app.alfaview.com | 200 | 2026-08-31 17:05:00 | https://app.alfaview.com/ |
| 5734536 | alfaview.com | 200 | 2026-08-31 17:04:59 | https://alfaview.com/ |
| 5734524 | www.exploreworldwide.com | 200 | 2026-08-31 17:04:40 | https://www.exploreworldwide.com/ |
| 5734523 | www.exploreworldwide.co.nz | 200 | 2026-08-31 17:04:39 | https://www.exploreworldwide.co.nz/ |
| 5734522 | www.exploreworldwide.ch | 200 | 2026-08-31 17:04:37 | https://www.exploreworldwide.ch/ |
| 5734521 | www.exploreworldwide.eu | 200 | 2026-08-31 17:04:36 | https://www.exploreworldwide.eu/ |
| 5734520 | www.exploreworldwide.ca | 200 | 2026-08-31 17:04:35 | https://www.exploreworldwide.ca/ |
| 5734519 | www.exploreworldwide.com.au | 200 | 2026-08-31 17:04:34 | https://www.exploreworldwide.com.au/ |
| 5734511 | digitalkitsune.es | 200 | 2026-08-31 17:04:17 | https://digitalkitsune.es/ |
| 5734506 | forthview.digital | 200 | 2026-08-31 17:04:11 | https://forthview.digital/ |
| 5734501 | arena.skram.la | 200 | 2026-08-31 17:03:02 | https://arena.skram.la/ |
| 5734496 | www.greenmaven.com | 404 | 2026-08-31 17:02:08 | https://www.greenmaven.com/ |
| 5734495 | nakedbinderblog.com | 404 | 2026-08-31 17:02:08 | https://nakedbinderblog.com/ |
| 5734493 | www.worldbuildingsdirectory.com | 200 | 2026-08-31 17:02:07 | https://www.worldbuildingsdirectory.com/ |
| 5734492 | www.insidefestival.com | 403 | 2026-08-31 17:02:07 | https://www.insidefestival.com/ |
| 5734475 | www.worldwide-parcelservices.co.uk | 200 | 2026-08-31 17:01:01 | https://www.worldwide-parcelservices.co.uk/ |
| 5734473 | tme.digital | 200 | 2026-08-31 17:00:59 | https://tme.digital/ |
| 5734466 | www.mlbshop.ca | 403 | 2026-08-31 17:00:49 | https://www.mlbshop.ca/ |
| 5734464 | bluejays.fanportal-mlb.com | 403 | 2026-08-31 17:00:47 | https://bluejays.fanportal-mlb.com/ |
| 5734459 | affiliate.lovecash.com | 200 | 2026-08-31 17:00:36 | https://affiliate.lovecash.com/ |
| 5734456 | backchannel.org | 200 | 2026-08-31 17:00:34 | https://backchannel.org/ |
| 5734455 | colr.org | 403 | 2026-08-31 17:00:31 | http://colr.org/ |
| 5734451 | www.freewidewallpapers.com | 200 | 2026-08-31 17:00:29 | http://www.freewidewallpapers.com/ |
| 5734450 | www.shayarism.com | 200 | 2026-08-31 17:00:29 | http://www.shayarism.com/ |
| 5734449 | www.smsfunbook.com | 404 | 2026-08-31 17:00:28 | http://www.smsfunbook.com/ |
| 5734447 | sajna-de-bina.blogspot.com | 200 | 2026-08-31 17:00:28 | https://sajna-de-bina.blogspot.com/ |
| 5734444 | www.photographyproject.com.au | 403 | 2026-08-31 16:59:06 | https://www.photographyproject.com.au/ |
| 5734443 | www.businessmarketingshow.com | 200 | 2026-08-31 16:59:05 | http://www.businessmarketingshow.com/ |
| 5734442 | sitespeedbot.com | 200 | 2026-08-31 16:59:04 | https://sitespeedbot.com/ |
| 5734441 | wpalpha.com | 403 | 2026-08-31 16:59:03 | https://wpalpha.com/ |
| 5734440 | www.wpspeedfix.com | 200 | 2026-08-31 16:59:03 | https://www.wpspeedfix.com/ |
| 5734408 | www.hanro.com | 200 | 2026-08-31 16:56:49 | https://www.hanro.com/ |
| 5734403 | attentionthief.com | 200 | 2026-08-31 16:56:43 | https://attentionthief.com/ |
| 5734389 | www.carnetdumaker.net | 404 | 2026-08-31 16:56:32 | https://www.carnetdumaker.net/ |
| 5734386 | www.eonlinecasinoreviews.com | 200 | 2026-08-31 16:56:07 | https://www.eonlinecasinoreviews.com/ |
| 5734385 | www.eonlinecasinoreviews.com | 200 | 2026-08-31 16:55:59 | http://www.eonlinecasinoreviews.com/ |
| 5734384 | www.captaincookscasino.eu | 200 | 2026-08-31 16:55:57 | http://www.captaincookscasino.eu/ |
| 5734383 | www.vegasslotcasino.com | 200 | 2026-08-31 16:55:56 | http://www.vegasslotcasino.com/ |
| 5734382 | www.luxurycasino.com | 200 | 2026-08-31 16:55:54 | http://www.luxurycasino.com/ |
| 5734381 | info.blauworld.de | 404 | 2026-08-31 16:55:50 | https://info.blauworld.de/ |
| 5734376 | mayaptrungvn.blogspot.com | 200 | 2026-08-31 16:55:48 | http://mayaptrungvn.blogspot.com/ |
| 5734375 | sieuthimayaz.com | 404 | 2026-08-31 16:55:48 | http://sieuthimayaz.com/ |
| 5734364 | www.ogsmedia.com | 200 | 2026-08-31 16:55:40 | https://www.ogsmedia.com/ |
| 5734362 | madredemialma.com | 200 | 2026-08-31 16:55:33 | http://madredemialma.com/ |
| 5734359 | www.bushi-navi.com | 200 | 2026-08-31 16:55:16 | https://www.bushi-navi.com/ |
| 5734354 | my.vcu.edu | 200 | 2026-08-31 16:55:07 | https://my.vcu.edu/ |
| 5734350 | www.bons-plans-astuces.com | 200 | 2026-08-31 16:54:59 | http://www.bons-plans-astuces.com/ |
| 5734349 | www.compare-le-net.com | 200 | 2026-08-31 16:54:58 | http://www.compare-le-net.com/ |
| 5734348 | denicher.com | 200 | 2026-08-31 16:54:58 | https://denicher.com/ |
| 5734347 | www.easybarcodelabelpro.cellard.com | 404 | 2026-08-31 16:54:57 | https://www.easybarcodelabelpro.cellard.com/ |
| 5734345 | www.cellard.com | 200 | 2026-08-31 16:54:56 | https://www.cellard.com/ |
| 5734344 | www.madonnatribe.com | 200 | 2026-08-31 16:54:55 | https://www.madonnatribe.com/ |
| 5734334 | www.bindaaspoll.com | 200 | 2026-08-31 16:54:50 | http://www.bindaaspoll.com/ |
| 5734333 | www.bindaaspoll.com | 200 | 2026-08-31 16:54:42 | https://www.bindaaspoll.com/ |
| 5734330 | bindaaspoll1.blogspot.com | 200 | 2026-08-31 16:54:41 | http://bindaaspoll1.blogspot.com/ |
| 5734329 | www.joanin.com.br | 200 | 2026-08-31 16:54:14 | http://www.joanin.com.br/ |
| 5734327 | www.joanin.com.br | 200 | 2026-08-31 16:54:05 | https://www.joanin.com.br/ |
| 5734324 | www.dmcard.com.br | 200 | 2026-08-31 16:54:03 | https://www.dmcard.com.br/ |
| 5734323 | www.bjornblog.com | 200 | 2026-08-31 16:53:55 | https://www.bjornblog.com/ |
| 5734321 | bjornholine.com | 200 | 2026-08-31 16:53:54 | https://bjornholine.com/ |
| 5734313 | dojuku.com | 200 | 2026-08-31 16:52:45 | https://dojuku.com/ |
| 5734312 | pub.ili.inc | 200 | 2026-08-31 16:52:42 | https://pub.ili.inc/ |
| 5734311 | myphilosophy.global | 200 | 2026-08-31 16:52:39 | https://myphilosophy.global/ |
| 5734310 | ili.inc | 200 | 2026-08-31 16:52:36 | https://ili.inc/ |
| 5734308 | www.letianyun.cn | 200 | 2026-08-31 16:52:13 | http://www.letianyun.cn/ |
| 5734307 | www.ggseo.cn | 200 | 2026-08-31 16:52:10 | https://www.ggseo.cn/ |
| 5734306 | www.ayseo.com | 200 | 2026-08-31 16:52:05 | http://www.ayseo.com/ |
| 5734305 | www.zipinwangluo.com | 200 | 2026-08-31 16:52:03 | https://www.zipinwangluo.com/ |
| 5734304 | appbuilder.baidu.com | 500 | 2026-08-31 16:51:54 | https://appbuilder.baidu.com/ |
| 5734302 | filmnetzwerk-berlin.de | 200 | 2026-08-31 16:51:42 | http://filmnetzwerk-berlin.de/ |